Location: Kawec
(49.8399°N, 20.2203°E)
Time: 19:55:54
(UTC+00:00)

Daily predictions for brighter satellites

Satellite Brightness Start Highest point End
(mag) Time Altitude Azimuth Time Altitude Azimuth Time Altitude Azimuth
Cosmos 2208 Rocket 4.4 17:05:18 10° S 17:10:15 42° ESE 17:15:17 10° NE
ACS3 Solar Sail 3.1 17:05:29 10° ESE 17:10:23 24° ENE 17:15:16 10° N
ISS -3.6 17:08:58 10° W 17:12:19 73° NNW 17:15:42 10° ENE
SL-16 R/B 3.2 17:08:23 10° SSE 17:12:50 24° ESE 17:17:18 10° NE
Meteor PRIRODA 4.2 17:11:27 10° SE 17:14:22 31° ENE 17:17:18 10° N
USA 306 3.2 17:13:04 10° WNW 17:15:58 38° N 17:19:21 10° ENE
SKYMED 2 4.2 17:14:10 10° N 17:18:29 63° WNW 17:22:47 10° SSW
GENESIS II 3.8 17:15:32 10° SSW 17:19:00 71° SE 17:22:32 10° NE
ATLAS 2AS CENTAUR R/B 4.3 17:14:36 10° WNW 17:20:27 26° N 17:26:08 10° NE
Cosmos 1733 3.1 17:17:18 10° S 17:20:35 48° E 17:23:54 10° NNE
SAR-Lupe-2 3.7 17:17:26 10° SSE 17:20:55 53° ENE 17:24:25 10° N
Cosmos 1315 Rocket 3.0 17:17:28 10° N 17:21:20 48° ENE 17:25:10 10° SSE
Cosmos 1805 4.2 17:20:42 10° SE 17:23:41 24° E 17:26:41 10° NE
Cosmos 2278 Rocket 3.4 17:18:53 10° NW 17:24:16 45° WSW 17:29:37 10° S
Cosmos 1842 3.8 17:22:01 10° NNW 17:25:34 57° W 17:29:07 10° S
Meteor 1-11 Rocket 3.8 17:20:22 10° SSE 17:25:42 50° E 17:31:02 10° NNE
BREEZE-M DEB (TANK) 3.2 17:23:14 10° W 17:25:46 89° S 17:31:03 10° E
Cosmos 1536 2.6 17:22:30 10° S 17:26:18 67° E 17:30:09 10° NNE
Resurs 1-3 3.6 17:22:02 10° SSE 17:26:19 64° ENE 17:30:37 10° N
SPOT 1/Viking Rocket 3.6 17:21:31 10° SSE 17:26:36 62° ENE 17:31:41 10° N
USA 59 Rocket 3.0 17:25:53 10° W 17:28:45 17° WSW 17:32:10 10° SSW
Meteor 1-14 Rocket 4.3 17:23:13 10° SSW 17:28:45 85° WNW 17:34:23 10° NNE
COSMOS 2428 4.0 17:24:14 10° SW 17:29:42 45° NW 17:35:13 10° NNE
Meteor 2-9 Rocket 4.4 17:24:40 10° SSE 17:29:48 47° E 17:35:06 10° NNE
Cosmos 1515 Rocket 3.5 17:26:32 10° N 17:30:55 88° ENE 17:35:18 10° S
ATLAS CENTAUR R/B 1.9 17:28:52 10° WSW 17:32:23 53° NW 17:36:08 10° NNE
ADEOS 3.5 17:28:30 10° SSE 17:33:41 72° ENE 17:38:54 10° NNW
SL-14 R/B 3.9 17:30:14 10° N 17:33:43 32° ENE 17:37:12 10° SE
CSL-04 Rocket 4.3 17:31:05 10° SE 17:35:52 35° ENE 17:40:37 10° N
CZ-4B DEB 4.2 17:31:40 10° SSE 17:37:06 65° ENE 17:42:31 10° N
CZ-4B R/B 3.7 17:32:26 10° SE 17:37:24 40° ENE 17:42:20 10° N
Cosmos 1356 Rocket 4.5 17:35:47 10° NNW 17:39:49 49° W 17:43:49 10° S
Cosmos 836 Rocket 4.5 17:39:53 10° SSW 17:45:08 70° ESE 17:50:26 10° NNE
Cosmos 1500 Rocket 3.7 17:42:08 10° S 17:46:20 51° E 17:50:32 10° NNE
Nadezhda 4 Rocket 4.0 17:40:17 10° N 17:46:37 82° E 17:52:57 10° S
YAOGAN 1 3.9 17:43:40 10° S 17:47:44 42° W 17:51:51 10° NNW
NOSS 3-3 (C) 3.8 17:42:55 10° SW 17:48:20 80° SE 17:54:49 10° NE
CZ-4B R/B 3.4 17:44:58 10° SSE 17:49:45 86° WSW 17:54:41 10° NNW
ARGOS Delta rocket 3.7 17:45:56 10° SSE 17:50:45 77° ENE 17:55:21 10° N
Cosmos 2237 Rocket 2.7 17:45:22 10° SW 17:50:57 66° WNW 17:56:34 10° NNE
Cosmos 773 Rocket 4.1 17:46:08 10° S 17:51:14 52° ESE 17:56:22 10° NNE
Cosmos 1570 Rocket 4.3 17:46:24 10° SSW 17:51:40 74° WNW 17:56:56 10° NNE
USA 267 3.9 17:45:35 10° ENE 17:51:58 56° NNW 17:58:20 10° W
Cosmos 2026 Rocket 4.1 17:45:56 10° N 17:51:59 52° ENE 17:57:54 10° SSE
In-Cosmos 22 4.5 17:47:24 10° NNW 17:53:02 72° W 17:58:30 10° S
Meteor 2-10 4.3 17:48:25 10° S 17:54:07 90° NW 17:59:54 10° NNE
USA 186 2.1 17:52:09 15° SE 17:54:31 46° ENE 17:57:38 10° N
SJ-6B 2.7 17:51:30 10° S 17:55:05 76° WSW 17:58:42 10° NNW
Cosmos 1943 Rocket 3.6 17:50:24 10° NW 17:55:26 37° WSW 18:00:29 10° S
Cosmos 724 4.3 17:50:14 10° SSW 17:55:50 55° ESE 18:01:30 10° NE
Cosmos 1743 Rocket 3.7 17:52:08 10° SSE 17:56:17 48° E 18:00:31 10° NNE
Okean 3 Rocket 4.2 17:51:57 10° SSW 17:56:21 60° WNW 18:00:44 10° N
Cosmos 2150 Rocket 4.2 17:51:19 10° NNW 17:56:28 74° WSW 18:01:34 10° SSE
BREEZE-M DEB (TANK) 4.4 17:55:22 10° SSW 17:57:47 25° SE 17:59:27 20° E
SL-08 R/B 3.3 17:52:57 10° NNE 17:57:55 82° ESE 18:02:48 10° SSW
Cosmos 1408 Rocket 3.5 17:53:56 10° S 17:58:21 87° E 18:02:48 10° N
NOSS 3-3 (A) 3.9 17:53:00 10° SW 17:58:27 86° NW 18:04:59 10° NE
Cosmos 2298 Rocket 4.3 17:54:15 10° NNW 17:59:33 71° WSW 18:04:49 10° SSE
SWARM A 4.2 17:56:08 10° S 17:59:37 76° E 18:03:08 10° N
SeaSat 1 2.8 17:55:42 10° NNE 18:00:36 69° NW 18:05:29 10° SW
Helios 1A 2.8 17:57:40 10° NNE 18:01:45 70° ESE 18:05:48 10° S
Cosmos 1092 Rocket 4.1 17:56:14 10° N 18:02:31 60° ENE 18:08:47 10° SSE
Cosmos 158 Rocket 4.3 17:58:07 10° SW 18:02:56 64° WNW 18:07:49 10° NNE
USA 32 4.0 17:58:29 10° N 18:03:43 64° E 18:08:55 10° SSE
SKYMED 3 4.3 17:59:49 10° NNE 18:03:58 87° ESE 18:08:03 10° SSW
GEOS 3 Rocket 3.9 18:00:53 19° ESE 18:04:25 54° NE 18:09:27 10° NW
Sich 1 2.9 18:01:14 10° S 18:05:31 74° E 18:09:52 10° NNE
Okean O Rocket 2.2 18:03:42 21° ESE 18:06:07 39° ENE 18:10:13 10° N
Cosmos 1766 4.4 18:07:23 22° ENE 18:07:23 22° ENE 18:09:44 10° NE
CARTOSAT-1 3.4 18:03:09 11° SSE 18:07:13 69° ENE 18:11:28 10° N
Tiangong 0.0 18:07:26 10° SSW 18:09:05 15° S 18:09:05 15° S
Cosmos 1656 Rocket 3.6 18:03:52 10° NNW 18:09:33 84° ENE 18:14:10 15° SSE
Cosmos 2297 3.6 18:05:20 10° NNW 18:11:01 78° ENE 18:15:21 18° SE
Cosmos 1607 3.9 18:04:59 10° SSW 18:11:26 76° SE 18:17:52 10° NE
Aureole 3 Rocket 3.1 18:06:24 10° S 18:11:55 72° E 18:15:55 10° NNE
CSL-04 Debris 4.1 18:07:19 10° SSE 18:12:43 71° ENE 18:18:10 10° NNW
CZ-4 R/B 1.6 18:11:29 10° S 18:15:20 67° WSW 18:19:18 10° NNW
Cosmos 2369 Rocket 2.2 18:10:09 10° NNW 18:15:53 71° ENE 18:19:41 22° SE
SPOT 5 3.6 18:14:53 26° E 18:15:57 29° ENE 18:19:42 10° N
MOS 1-B 4.4 18:11:07 15° SSE 18:15:58 63° ENE 18:21:41 10° N
PAYLOAD B 4.3 18:10:38 10° SSE 18:16:15 83° WSW 18:21:54 10° NNW
Meteor 1-23 Rocket 4.3 18:12:23 10° NNW 18:18:04 80° W 18:23:46 10° S
ARIANE 6 FM1 Upper Stage 3.3 18:17:22 10° S 18:21:15 35° SE 18:21:46 33° ESE
Cosmos 1634 Rocket 4.1 18:15:30 10° SSE 18:21:37 56° E 18:27:47 10° NNE
NOSS 3-4 (A) 3.9 18:16:00 10° NW 18:22:46 84° SW 18:28:32 20° SE
Terra 3.2 18:22:17 20° ENE 18:22:48 20° ENE 18:26:14 10° NNE
NOSS 3-4 (C) 3.9 18:16:06 10° NW 18:22:52 84° SW 18:28:35 20° SE
Okean 2 4.3 18:19:58 10° N 18:23:30 29° ENE 18:23:34 29° ENE
CZ-4B R/B 3.5 18:21:09 10° S 18:25:07 57° W 18:29:16 10° NNW
Cosmos 1805 Rocket 3.8 18:25:04 10° SSW 18:29:22 69° WNW 18:33:45 10° N
Cosmos 2228 Rocket 3.1 18:26:01 10° N 18:30:35 65° ENE 18:32:38 31° SSE
Okean 1-7 3.9 18:27:05 10° N 18:30:53 30° ENE 18:30:54 30° ENE
Cosmos 1441 Rocket 2.8 18:29:41 19° S 18:32:05 72° E 18:35:38 10° NNE
Cosmos 1633 Rocket 3.5 18:32:47 38° E 18:32:51 38° E 18:36:56 10° NNE
Resurs 01 Rocket 1.9 18:30:24 12° S 18:34:29 66° W 18:38:54 10° NNW
Cosmos 1975 2.6 18:31:19 10° S 18:35:12 89° W 18:39:08 10° N
Cosmos 2084 Rocket 3.4 18:30:59 10° SSW 18:35:14 59° SE 18:37:01 31° ENE
Cosmos 192 4.2 18:32:29 10° NNW 18:37:23 72° ENE 18:39:13 38° SE
Okean-O 2.8 18:39:41 44° ESE 18:40:27 50° ENE 18:44:43 10° N
MOS 1 Rocket 4.0 18:41:01 37° ESE 18:42:21 45° ENE 18:47:28 10° N
Cosmos 1862 Rocket 3.5 18:38:52 10° N 18:43:19 71° ENE 18:44:35 45° SSE
Cosmos 1707 Rocket 3.4 18:42:00 10° N 18:46:27 86° E 18:47:57 41° SSE
ERS-1 Rocket 3.5 18:46:18 36° E 18:46:53 38° ENE 18:51:30 10° N
USA 306 2.4 18:45:25 10° WNW 18:48:48 68° NNE 18:48:52 68° NNE
ISS -3.6 18:45:56 10° WNW 18:49:13 68° N 18:49:13 68° N
Cosmos 1666 Rocket 3.4 18:51:16 50° SSE 18:52:16 71° E 18:56:36 10° NNE
Cosmos 2279 Rocket 3.9 18:48:40 19° S 18:53:10 64° E 18:59:19 10° NNE
ACS3 Solar Sail 1.9 18:48:36 17° S 18:53:43 82° WSW 19:00:11 10° NNW
SL-16 R/B 2.6 18:50:50 10° SW 18:56:28 65° WNW 19:02:08 10° NNE
IKONOS-2 4.4 18:59:00 10° NNE 19:03:10 82° WNW 19:04:31 42° SSW
Okean 3 3.6 19:03:45 10° NNW 19:07:54 68° W 19:08:32 58° SSW
Cosmos 1943 3.1 19:07:43 45° SSE 19:09:14 61° ESE 19:14:49 10° NE
ATLAS CENTAUR R/B 4.1 19:08:29 10° WNW 19:10:36 14° NNW 19:12:47 10° NNE
ATLAS 2AS CENTAUR R/B 3.9 19:07:18 10° NW 19:13:26 32° NNE 19:16:25 23° ENE
PSLV R/B 4.3 19:14:51 50° WNW 19:14:51 50° WNW 19:17:43 10° NNW
Ariane Rocket 3.6 19:17:37 40° NE 19:17:37 40° NE 19:21:55 10° N
CZ-4B R/B 4.5 19:13:14 11° SSW 19:18:01 36° W 19:22:55 10° NNW
Cosmos 1655 Rocket 4.3 19:12:03 10° N 19:18:12 46° ENE 19:18:35 46° E
MOS 1 4.3 19:17:17 43° S 19:19:13 76° WSW 19:24:56 10° NNW
IRS-1C Rocket 3.9 19:23:12 72° E 19:23:27 74° ENE 19:28:43 10° NNW
USA 267 3.9 19:31:14 28° ENE 19:34:25 49° N 19:40:40 10° WNW
Cosmos 2056 Rocket 4.1 19:35:26 10° NNW 19:39:51 46° NE 19:39:51 46° NE
Cosmos 2266 Rocket 3.9 19:35:31 10° N 19:41:53 88° W 19:42:48 68° S
Okean O Rocket 3.4 19:41:03 22° SW 19:42:27 27° W 19:46:13 10° NW
GEOS 3 Rocket 4.5 19:41:58 37° SW 19:42:33 39° WSW 19:47:24 10° NW
SPOT 5 3.9 19:54:01 36° W 19:54:01 36° W 19:57:55 10° NNW
SL-24 R/B - RUBIN 2 4.2 19:47:52 10° NW 19:54:07 85° NNW 19:54:07 85° NNW
Cosmos 2369 Rocket 4.1 19:55:03 10° NW 19:59:21 22° W 20:01:29 18° SW
Terra 2.6 20:00:58 49° NW 20:00:58 49° NW 20:04:39 10° NNW
Cosmos 1420 Rocket 4.5 19:56:26 10° NNW 20:00:34 57° NNW 20:00:34 57° NNW
Cosmos 2344 4.0 19:54:53 10° NW 20:02:46 64° NE 20:05:08 51° E
BREEZE-M DEB (TANK) 3.7 19:51:07 10° WNW 20:03:29 64° SW 20:03:29 64° SW
Cosmos 1656 4.3 20:11:51 10° NNW 20:16:15 51° N 20:16:15 51° N
Meteor 1-24 Rocket 4.2 20:11:57 10° NNW 20:16:38 58° N 20:16:38 58° N
Cosmos 1980 Rocket 4.0 20:15:11 10° N 20:19:05 21° NE 20:19:05 21° NE
ERS-1 Rocket 4.4 20:26:14 33° W 20:26:14 33° W 20:30:14 10° NNW
ACS3 Solar Sail 4.2 20:34:51 10° WSW 20:38:43 16° W 20:42:35 10° NW
Cosmos 1697 Rocket 4.0 20:55:07 10° NNW 20:58:31 36° N 20:58:31 36° N
ATLAS 2AS CENTAUR R/B 3.2 20:58:29 10° NW 21:03:49 55° NNW 21:03:49 55° NNW
USA 267 3.8 21:18:35 54° NW 21:18:35 54° NW 21:23:34 10° WNW
SL-16 R/B 4.2 21:49:50 10° NNW 21:53:04 23° NNE 21:53:04 23° NNE
Cosmos 1980 Rocket 4.1 21:58:38 10° NNW 22:00:49 25° NNW 22:00:49 25° NNW
Cosmos 2333 Rocket 4.3 22:05:45 10° N 22:09:34 20° NNE 22:09:34 20° NNE
Cosmos 2360 Rocket 4.1 22:47:36 10° NNW 22:50:33 25° N 22:50:33 25° N
Cosmos 2219 Rocket 4.1 23:00:19 10° NNW 23:04:14 24° NNE 23:04:14 24° NNE
Cosmos 2322 Rocket 4.1 23:04:47 10° NNW 23:07:16 25° N 23:07:16 25° N
Cosmos 2082 Rocket 3.9 23:26:45 28° NNE 23:26:45 28° NNE 23:29:27 10° NNE
SL-16 R/B 4.4 23:33:34 10° NNW 23:34:52 17° NNW 23:34:52 17° NNW
COSMOS 2455 4.2 23:45:18 33° ENE 23:45:18 33° ENE 23:48:38 10° NE
CZ-2D R/B 4.2 23:41:07 10° NE 23:44:08 21° ENE 23:44:08 21° ENE
